Home > Weather > Danmarkshavn > Past weeks

Flag for Greenland Past Weather in Danmarkshavn, Greenland — Yesterday and Last 2 Weeks

Now
29 °F

Light snow. Overcast.


Feels Like: 14 °F
Forecast: 28 / 33 °F
Wind: 28 mph from North

Location: Danmarkshavn

Current Time: May 26, 2016 at 10:56:29 AM

Latest Report: May 26, 2016 at 10:00 AM


Visibility: 2 mi

Pressure: 29.44 "Hg

Humidity: 78%

Dew Point: 23 °F

Location of DanmarkshavnLocation

Past Weather in Danmarkshavn — Graph

°F

Danmarkshavn Temperature Yesterday

Maximum temperature yesterday: 30 °F (at 12:00 PM)
Minimum temperature yesterday: 24 °F (at 1:00 AM)
Average temperature yesterday: 27 °F

High & Low Weather Summary for the Past Weeks

 TemperatureHumidityPressure
High30 °F (May 18, 7:00 PM)97% (May 25, 4:00 AM)30.31 "Hg (May 25, 4:00 AM)
Low14 °F (May 12, 3:00 AM)51% (May 12, 3:00 PM)29.44 "Hg (May 26, 7:00 AM)
Average24 °F76%29.98 "Hg
* Reported May 11 9:00 AM — May 26 9:00 AM, Danmarkshavn, Weather by CustomWeather, © 2016

Note: Actual official high and low records may vary slightly from our data, if they occured in-between our weather recording intervals... More about our weather records

Advertising

Danmarkshavn Weather History for the Previous 24 Hours

Scroll right to see more
 ConditionsComfort  
Time TempWeatherWind HumidityBarometerVisibility
9:00 AM
Thu, May 26
28 °FLight snow. Overcast.28 mph80%29.44 "Hg1 mi
8:00 AM28 °FLight snow. Overcast.30 mph83%29.44 "Hg1 mi
7:00 AM28 °FLight snow. Overcast.31 mph82%29.44 "Hg1 mi
6:00 AM27 °FLight snow. Overcast.33 mph83%29.47 "Hg1 mi
5:00 AM27 °FHeavy snow. Overcast.30 mph86%29.47 "Hg1 mi
4:00 AM27 °FSnow flurries. Overcast.29 mph86%29.50 "Hg1 mi
3:00 AM27 °FHeavy snow. Overcast.24 mph86%29.54 "Hg3 mi
2:00 AM27 °FLight snow. Overcast.18 mph86%29.57 "Hg2 mi
1:00 AM27 °FLight snow. Overcast.16 mph89%29.61 "Hg1 mi
12:00 AM27 °FLight snow. Overcast.15 mph91%29.64 "Hg1 mi
11:00 PM
Wed, May 25
27 °FLight snow. Low clouds.15 mph93%29.67 "Hg1 mi
10:00 PM27 °FLow clouds.10 mph90%29.69 "Hg31 mi
9:00 PM27 °FSnow flurries. Low clouds.9 mph93%29.72 "Hg19 mi
8:00 PM28 °FLow clouds.9 mph88%29.74 "Hg31 mi
7:00 PM28 °FLow clouds.9 mph88%29.78 "Hg25 mi
6:00 PM28 °FOvercast.12 mph84%29.80 "Hg31 mi
5:00 PM28 °FSnow flurries. Overcast.12 mph86%29.82 "Hg4 mi
4:00 PM29 °FOvercast.9 mph80%29.83 "Hg31 mi
3:00 PM28 °FOvercast.7 mph86%29.86 "Hg6 mi
2:00 PM29 °FOvercast.7 mph77%29.88 "Hg31 mi
1:00 PM29 °FOvercast.7 mph73%29.90 "Hg31 mi
12:00 PM30 °FOvercast.3 mph75%29.92 "Hg28 mi
11:00 AM29 °FLow clouds.5 mph86%29.94 "Hg31 mi
10:00 AM28 °FOvercast.6 mph85%29.95 "Hg31 mi
Weather by CustomWeather, © 2016

See weather overviewHow to use our weather pages